{"data":{"norad_id":53890,"epoch":"2026-05-25T03:58:47.525376Z","epoch_age_seconds":54044,"freshness":"FRESH","line1":"1 53890U 22119E   26145.16582784  .00000300  00000+0  36976-4 0  9996","line2":"2 53890  53.2136 305.5892 0001709  87.6053 272.5135 15.08836422203723","mean_motion":15.08836422,"eccentricity":0.0001709,"inclination_deg":53.2136,"raan_deg":305.5892,"arg_perigee_deg":87.6053,"mean_anomaly_deg":272.5135,"bstar":3.6976e-5,"rev_number":20372,"period_min":95.437780994924,"perigee_km":538.57205787279,"apogee_km":540.93659312784,"semimajor_km":6917.8913255003,"source":"CELESTRAK","updated_at":"2026-05-25T13:38:17.582150Z"}}